Location: ????????
(48.4751°N, 37.6926°E)
Time: 13:36:00
(UTC+00:00)

USA 267 - Pass Details

Date: 20 January 2021
Orbit: 1102 x 1106 km, 123.0° (Epoch: 22 February)

Event Time Altitude Azimuth Distance (km) Brightness Sun altitude
Exits shadow 18:04:14 38° 236° (SW) 1,627 4.3 -38.4°
Drops below altitude 10° 18:07:57 10° 237° (WSW) 2,957 5.9 -39.0°
Sets 18:10:26 0° 238° (WSW) 3,914 6.6 -39.4°
